Overview Statistics Trail Chart Weather Telemetry Raw packets
 

This is the latest recevied weather packets stored in our database for station/object WX5RP. If no packets are shown the sender has not sent any weather packets the latest 10 day(s).

<< 19 20 21 22 23 24 25 >>
Time Temp. Humidity Pressure Rain* Wind** Luminosity Snow
1777699516 11.11° C 49% 1015.1 hPa 0 mm - 0 W/m² -
1777698916 11.67° C 45% 1015.1 hPa 0 mm - 0 W/m² -
1777698315 11.11° C 46% 1015.3 hPa 0 mm - 0 W/m² -
1777697715 12.78° C 43% 1015 hPa 0 mm - 0 W/m² -
1777697117 13.33° C 40% 1014.9 hPa 0 mm - 0 W/m² -
1777696517 13.89° C 38% 1014.6 hPa 0 mm - 0 W/m² -
1777695915 14.44° C 37% 1014.5 hPa 0 mm - 0 W/m² -
1777695315 13.33° C 35% 1014.5 hPa 0 mm - 0 W/m² -
1777694715 13.33° C 39% 1014.8 hPa 0 mm - 0 W/m² -
1777694116 13.33° C 38% 1014.3 hPa 0 mm - 0 W/m² -
1777693515 14.44° C 34% 1014.3 hPa 0 mm - 0 W/m² -
1777692915 15° C 29% 1013.8 hPa 0 mm - 0 W/m² -
1777692315 15.56° C 32% 1013.5 hPa 0 mm - 0 W/m² -
1777691715 16.11° C 29% 1013.5 hPa 0 mm - 0 W/m² -
1777691115 16.67° C 32% 1014.6 hPa 0 mm - 0 W/m² -
1777690517 17.22° C 31% 1014.2 hPa 0 mm - 7 W/m² -
1777689917 18.33° C 37% 1014 hPa 0 mm - 17 W/m² -
1777689317 19.44° C 31% 1013.8 hPa 0 mm - 35 W/m² -
1777688717 20° C 29% 1013.2 hPa 0 mm - 55 W/m² -
1777688117 20.56° C 27% 1012.9 hPa 0 mm - 73 W/m² -
1777687517 20.56° C 28% 1014.6 hPa 0 mm - 94 W/m² -
1777686918 20.56° C 28% 1014.5 hPa 0 mm - 114 W/m² -
1777686317 21.11° C 24% 1014.1 hPa 0 mm - 126 W/m² -
1777685717 20.56° C 29% 1013.8 hPa 0 mm - 131 W/m² -
1777685120 21.11° C 27% 1014.2 hPa 0 mm - 153 W/m² -

* Rain latest hour (hover to see other rain measurements)
** Current wind speed in m/s (hover to see current wind gust speed)